Zurück zum Katalog

FENGYUN 1C DEB

AktivSSO
NORAD 31368·DEBRIS·🇨🇳 China

Gestartet May 10, 1999 von Taiyuan Satellite Launch Center

Loading…

Nächste Überflüge (nächste 24 Stunden)

TLE

AlterndSource: Space-Track

Epoche: Sep 7, 2026, 08:25 UTC

1 31368U 99025BRY 26250.35091643  .00000787  00000-0  35117-3 0  9994
2 31368  99.1290  90.3257 0044056 240.4905 119.1876 14.25311215682882

Verfolge FENGYUN 1C DEB in Echtzeit mit AllMySat

Download on the App Store